User: anonymous   Login
Location: Croisilles
(50.1998°N, 2.8793°E)
Time: 08:22:38
(UTC+00:00)
Language:

COSMOS 2455 - Orbit

View from above orbital plane
View from above orbital plane
View from above satellite
View from above satellite

Ground track
Ground track

The orbit data is extracted from the following two-line orbital elements,

1 36095U 09063A   21102.14663724 -.00000052  00000-0  16731-4 0  9990
2 36095  67.1476 173.0645 0003843 251.8710 108.1956 13.96767244581063
Epoch (UTC): 12 April 2021 03:31:09
Eccentricity: 0.0003843
inclination: 67.1476°
perigee height: 902 km
apogee height: 908 km
right ascension of ascending node: 173.0645°
argument of perigee: 251.8710°
revolutions per day: 13.96767244
mean anomaly at epoch: 108.1956°
orbit number at epoch: 58106

The dashed part of the orbit path shows where the satellite is in the earth's shadow,  

DLR